Location: Clarion
(42.7316°N, 93.7330°W)
Time: 09:29:13
(UTC+00:00)

NOSS 3-1 (A) - Pass Details

Date: 22 April 2026
Orbit: 613 x 1593 km, 63.4° (Epoch: 10 January)

Event Time Altitude Azimuth Distance (km) Brightness Sun altitude
Rises 04:15:50 0° 324° (NW) 3,802 7.8 -28.8°
Reaches altitude 10° 04:18:14 10° 326° (NW) 2,975 7.0 -29.1°
Maximum altitude 04:25:33 79° 53° (NE) 1,332 4.0 -29.8°
Enters shadow 04:27:02 64° 121° (ESE) 1,473 4.0 -29.9°
